(114497) = 1998 SD162 = 2003 AS63

Discovered at Socorro on 2003-01-08 by LINEAR.

Orbit

Orbit type: Main Belt

Note: WebGL enabled browser required.

epoch2023-09-13.0
epoch JD2460200.5
perihelion date2020-03-26.21545
perihelion JD2458934.71545
argument of perihelion (°)279.98529
ascending node (°)104.41265
inclination (°)3.35785
eccentricity0.1767596
perihelion distance (AU)1.9235603
Tisserand w.r.t. Jupiter3.5
ΔV w.r.t. Earth (km/sec)8.7
semimajor axis (AU)2.3365719
mean anomaly (°)349.29704
mean daily motion (°/day)0.27595300
aphelion distance (AU)2.750
period (years)3.57
P-vector [x]0.90906092
P-vector [y]0.40154540
P-vector [z]0.11121838
Q-vector [x]-0.41278336
Q-vector [y]0.83157767
Q-vector [z]0.37160258
absolute magnitude16.97
phase slope0.15
uncertainty0
referenceMPEC 2024-B173
observations used620
oppositions16
arc length (days)9257
first opposition used1998
last opposition used2024
residual rms (arc-secs)0.74
perturbers coarse indicatorM-v
perturbers precise indicator003Ek
first observation date used1998-09-26.0
last observation date used2024-01-30.0
computer nameMPCLINUX
JD of orbit computation2456760.768177
perihelion JD uncertainty (days)7.9677E-05
argument of perihelion uncertainty (°)1.0936E-04
ascending node uncertainty (°)1.0713E-04
inclination uncertainty (°)5.4948E-06
eccentricity uncertainty 5.0468E-08
perihelion distance uncertainty (AU)1.2104E-07
Minimum Orbit Intersection Distances (in AU)
for orbit epoch: 2460200.5, reference: E2024-BH3
Mercury1.58408
Venus1.19882
Earth0.92987
Mars0.48568
Jupiter2.6982
Saturn6.75161
Uranus15.7697
Neptune27.9101

Observations

632 total observations over interval: 1998 09 26.29813 – 2024 01 30.120695
These data are available for download (format description).

Date (UT) J2000 RA J2000 Dec Magn Location Ref
1998 09 26.29813 01 50 06.52 +04 11 35.6 18.9   704 – Lincoln Laboratory ETS, New Mexico MPS 2839
1998 09 26.31477 01 50 05.92 +04 11 31.2 19.1   704 – Lincoln Laboratory ETS, New Mexico MPS 2839
1998 09 26.33140 01 50 05.31 +04 11 24.8 19.3   704 – Lincoln Laboratory ETS, New Mexico MPS 2839
1998 09 26.34801 01 50 04.70 +04 11 18.9 19.1   704 – Lincoln Laboratory ETS, New Mexico MPS 2839
1998 09 26.36468 01 50 04.09 +04 11 16.1 19.1   704 – Lincoln Laboratory ETS, New Mexico MPS 2839
1998 09 27.38988 01 49 30.18 +04 06 17.5 19.2   704 – Lincoln Laboratory ETS, New Mexico MPS 2839
1998 09 27.40715 01 49 29.42 +04 06 11.4 19.9   704 – Lincoln Laboratory ETS, New Mexico MPS 2839
1998 09 27.42436 01 49 28.82 +04 06 09.3 19.9   704 – Lincoln Laboratory ETS, New Mexico MPS 2839
1998 09 27.44163 01 49 28.22 +04 06 02.6 19.8   704 – Lincoln Laboratory ETS, New Mexico MPS 2839
1998 10 11.33795 01 39 20.43 +02 54 52.8 18.7 R 699 – Lowell Observatory-LONEOS MPS 112836
1998 10 11.35782 01 39 19.38 +02 54 46.5   699 – Lowell Observatory-LONEOS MPS 112836
1998 10 11.37770 01 39 18.33 +02 54 40.6   699 – Lowell Observatory-LONEOS MPS 112836
1998 10 20.33390 01 31 26.30 +02 12 44.5 18.3 R 699 – Lowell Observatory-LONEOS MPS 112836
1998 10 20.35375 01 31 25.36 +02 12 38.8   699 – Lowell Observatory-LONEOS MPS 112836
1998 10 20.37361 01 31 24.22 +02 12 33.1   699 – Lowell Observatory-LONEOS MPS 112836
2002 12 05.36861 07 58 07.71 +20 07 44.8 19.3   704 – Lincoln Laboratory ETS, New Mexico MPS 112836
2002 12 05.38510 07 58 07.36 +20 07 48.1 20.1   704 – Lincoln Laboratory ETS, New Mexico MPS 112836
2002 12 05.41572 07 58 06.74 +20 07 52.5 19.9   704 – Lincoln Laboratory ETS, New Mexico MPS 112836
2002 12 05.43127 07 58 06.48 +20 07 56.4 20.0   704 – Lincoln Laboratory ETS, New Mexico MPS 112836
2002 12 31.31353 07 39 01.36 +21 44 39.5 19.6   704 – Lincoln Laboratory ETS, New Mexico MPS 71824
2002 12 31.34298 07 38 59.37 +21 44 48.3 19.6   704 – Lincoln Laboratory ETS, New Mexico MPS 71824
2002 12 31.35769 07 38 58.40 +21 44 51.6 19.1   704 – Lincoln Laboratory ETS, New Mexico MPS 71824
2003 01 08.33119 07 30 03.30 +22 20 08.6 19.4   704 – Lincoln Laboratory ETS, New Mexico MPS 71824
2003 01 08.34607 07 30 02.26 +22 20 12.1 19.5   704 – Lincoln Laboratory ETS, New Mexico MPS 71824
2003 01 08.36064 07 30 01.14 +22 20 16.9 19.6   704 – Lincoln Laboratory ETS, New Mexico MPS 71824
2003 01 08.37536 07 30 00.12 +22 20 20.5 19.7   704 – Lincoln Laboratory ETS, New Mexico MPS 71824
2003 01 09.26183 07 28 59.70 +22 24 07.4 19.6   704 – Lincoln Laboratory ETS, New Mexico MPS 71824
2003 01 09.27650 07 28 58.66 +22 24 10.8 19.9   704 – Lincoln Laboratory ETS, New Mexico MPS 71824
2003 01 09.29165 07 28 57.50 +22 24 17.0 20.2   704 – Lincoln Laboratory ETS, New Mexico MPS 71824
2003 01 09.30649 07 28 56.52 +22 24 20.2 19.6   704 – Lincoln Laboratory ETS, New Mexico MPS 71824
2003 01 10.33779 07 27 45.44 +22 28 43.8 19.2 R 649 – Powell Observatory, Louisburg MPS 71824
2003 01 10.34161 07 27 45.14 +22 28 45.4 19.6 R 649 – Powell Observatory, Louisburg MPS 71824
2003 01 10.34591 07 27 44.82 +22 28 46.0 19.0 R 649 – Powell Observatory, Louisburg MPS 71824
2003 01 10.35856 07 27 43.97 +22 28 49.9 19.1   704 – Lincoln Laboratory ETS, New Mexico MPS 71824
2003 01 10.37115 07 27 43.07 +22 28 54.8 19.1   704 – Lincoln Laboratory ETS, New Mexico MPS 71824
2003 01 10.37386 07 27 42.97 +22 28 52.9 19.2   704 – Lincoln Laboratory ETS, New Mexico MPS 71824
2003 01 10.38741 07 27 41.95 +22 28 57.5 20.2   704 – Lincoln Laboratory ETS, New Mexico MPS 71824
2003 01 10.38955 07 27 41.80 +22 28 57.6 19.5   704 – Lincoln Laboratory ETS, New Mexico MPS 71824
2003 01 10.40365 07 27 40.77 +22 29 02.8 19.4   704 – Lincoln Laboratory ETS, New Mexico MPS 71824
2003 01 10.42076 07 27 39.63 +22 29 05.8 19.0   704 – Lincoln Laboratory ETS, New Mexico MPS 71824
2003 01 10.42099 07 27 39.58 +22 29 07.4 19.3   704 – Lincoln Laboratory ETS, New Mexico MPS 71824
2003 01 10.43832 07 27 38.37 +22 29 11.5 19.2   704 – Lincoln Laboratory ETS, New Mexico MPS 71824
2004 04 20.32834 14 24 37.40 -09 06 21.0 20.9 V 691 – Steward Observatory, Kitt Peak-Spacewatch MPS 112836
2004 04 20.35485 14 24 35.82 -09 06 13.5 20.9 V 691 – Steward Observatory, Kitt Peak-Spacewatch MPS 112836
2004 04 20.38401 14 24 34.09 -09 06 05.1 21.1 V 691 – Steward Observatory, Kitt Peak-Spacewatch MPS 112836
2005 07 30.45189 23 43 54.85 -06 21 33.3 19.3   644 – Palomar Mountain/NEAT MPS 138879
2005 07 30.46371 23 43 54.97 -06 21 34.7 19.5   644 – Palomar Mountain/NEAT MPS 138879
2005 07 30.47432 23 43 55.08 -06 21 36.0 19.6   644 – Palomar Mountain/NEAT MPS 138879
2005 08 28.31326 23 36 57.98 -08 40 45.6 18.5 R 699 – Lowell Observatory-LONEOS MPS 140186
2005 08 28.33552 23 36 57.01 -08 40 53.6 19.3 V 691 – Steward Observatory, Kitt Peak-Spacewatch MPS 140186
2005 08 28.35278 23 36 56.27 -08 41 00.2   699 – Lowell Observatory-LONEOS MPS 140186
2005 08 28.35628 23 36 56.14 -08 41 02.1 19.2 V 691 – Steward Observatory, Kitt Peak-Spacewatch MPS 140186
2005 08 28.37359 23 36 55.41 -08 41 09.3 19.3 V 691 – Steward Observatory, Kitt Peak-Spacewatch MPS 140186
2005 08 28.38023 23 36 55.13 -08 41 12.5   699 – Lowell Observatory-LONEOS MPS 140186
2005 08 28.42388 23 36 53.26 -08 41 29.9   699 – Lowell Observatory-LONEOS MPS 140186
2005 09 01.32649 23 34 11.20 -09 08 48.4 19.1 V 691 – Steward Observatory, Kitt Peak-Spacewatch MPS 140186
2005 09 01.34378 23 34 10.37 -09 08 55.8 19.1 V 691 – Steward Observatory, Kitt Peak-Spacewatch MPS 140186
2005 09 01.36115 23 34 09.57 -09 09 03.1 19.2 V 691 – Steward Observatory, Kitt Peak-Spacewatch MPS 140186
2005 09 11.30417 23 26 11.26 -10 18 59.0 19.0 V 691 – Steward Observatory, Kitt Peak-Spacewatch MPS 141691
2005 09 11.32160 23 26 10.32 -10 19 06.1 18.9 V 691 – Steward Observatory, Kitt Peak-Spacewatch MPS 141691
2005 09 11.33949 23 26 09.36 -10 19 13.3 19.0 V 691 – Steward Observatory, Kitt Peak-Spacewatch MPS 141691
2005 09 22.25354 23 17 01.61 -11 25 36.0 18.6 R 644 – Palomar Mountain/NEAT MPS 143881
2005 09 22.27558 23 17 00.48 -11 25 42.7 18.6 R 644 – Palomar Mountain/NEAT MPS 143881
2005 09 22.29615 23 16 59.43 -11 25 49.4 18.6 R 644 – Palomar Mountain/NEAT MPS 143881
2005 09 24.21995 23 15 29.15 -11 35 26.3 18.8 R 644 – Palomar Mountain/NEAT MPS 143881
2005 09 24.24141 23 15 28.09 -11 35 32.6 19.8 R 644 – Palomar Mountain/NEAT MPS 143881
2005 09 24.26275 23 15 27.05 -11 35 38.8 18.4 R 644 – Palomar Mountain/NEAT MPS 143881
2005 09 25.23496 23 14 42.68 -11 40 11.6 19.1 V 703 – Catalina Sky Survey MPS 142633
2005 09 25.24140 23 14 42.32 -11 40 13.5 18.5 V 703 – Catalina Sky Survey MPS 142633
2005 09 25.24784 23 14 42.07 -11 40 16.5 18.6 V 703 – Catalina Sky Survey MPS 142633
2005 09 25.25424 23 14 41.71 -11 40 17.9 18.9 V 703 – Catalina Sky Survey MPS 142633
2005 09 27.25954 23 13 13.11 -11 49 03.4 19.0   704 – Lincoln Laboratory ETS, New Mexico MPS 142633
2005 09 27.27000 23 13 12.68 -11 49 05.9 18.7   704 – Lincoln Laboratory ETS, New Mexico MPS 142633
2005 09 27.28044 23 13 12.22 -11 49 07.7 19.0   704 – Lincoln Laboratory ETS, New Mexico MPS 142633
2005 09 27.29088 23 13 11.69 -11 49 10.7 18.6   704 – Lincoln Laboratory ETS, New Mexico MPS 142633
2005 09 27.30134 23 13 11.18 -11 49 13.7 19.2   704 – Lincoln Laboratory ETS, New Mexico MPS 142633
2005 10 03.26994 23 09 18.39 -12 09 37.3 19.0 V 703 – Catalina Sky Survey MPS 143881
2005 10 03.27645 23 09 18.10 -12 09 38.8 19.0 V 703 – Catalina Sky Survey MPS 143881
2005 10 03.28294 23 09 17.89 -12 09 38.8 19.1 V 703 – Catalina Sky Survey MPS 143881
2005 10 03.28947 23 09 17.64 -12 09 40.5 19.5 V 703 – Catalina Sky Survey MPS 143881
2007 01 28.45057 11 29 03.69 +07 29 08.4 21.0 V G96 – Mt. Lemmon Survey MPS 198554
2007 01 28.45939 11 29 03.48 +07 29 11.1 21.0 V G96 – Mt. Lemmon Survey MPS 198554
2007 01 28.46824 11 29 03.22 +07 29 13.7 21.1 V G96 – Mt. Lemmon Survey MPS 198554
2007 01 28.47712 11 29 03.01 +07 29 16.1 20.9 V G96 – Mt. Lemmon Survey MPS 198554
2007 02 23.24394 11 11 14.72 +10 05 31.0 20.7 V 691 – Steward Observatory, Kitt Peak-Spacewatch MPS 202195
